星链-32084 (STARLINK-32084)

导读

STARLINK-32084是美国SpaceX公司于2024年8月2日发射的星链低轨互联网卫星,属于Starlink星座组网计划的一部分,该计划计划部署超4万余颗卫星,旨在实现全球覆盖高速低延迟宽带互联网接入。卫星采用平板设计、搭载氪工质霍尔推进器,具备自主避撞能力,服役期满后会受控离轨再入大气层焚毁,可降低空间碎片风险,为偏远地区等提供网络连接服务。

基本信息
目录编号:
60347
目录名称:
STARLINK-32084
国际标识:
2024-136U
轨道中心:
EARTH
卫星名称:
星链-32084 (STARLINK-32084)
卫星全名:
星链-32084 (STARLINK-32084)
卫星状态:
在轨 (已飞行771 天)
发射日期:
2024-08-02 UTC
国别 :
美国 (US)
星等 :
--
该卫星已列入 空间交会检测服务 Space Conjunction Data Service (SCDS) ,当前飞行风险评估等级: 无高风险
轨道信息
数据来源 国际轨道数据
星历时间: 2026-09-11T17:10:00+0800
21小时前
查看轨道信息
半长轴: 6848.874km
偏心率: 0.0001259
轨道倾角: 53.161°
近地点辐角 90.786°
升交点赤经 291.813°
平近点角 269.328°
近地点: 469.874km
远地点: 471.6km
周期: 94.013分钟
每日圈数: 15.317011
详细信息
卫星平台:
Starlink v2.0 mini
运营商:
太空探索技术公司
运营商所在国:
美国
制造商(研发单位):
太空探索技术公司
制造商所在国:
美国
使用方式:
暂无
卫星简介
星链(Starlink)计划是由太空探索技术公司(SpaceX)提出的一个巨型低轨卫星互联网星座项目,计划在2019年至2024年间在太空搭建由约1.2万颗卫星组成的“星链”网络,其中1584颗将部署在地球上空550千米处的近地轨道,并从2020年开始工作。该卫星仍在工作。
2D轨道图
3D轨道图
轨道高度分析图
轨道倾角分析图
轨道综合分析图
查看轨道综合分析图
交会数据列表
事件ID 空间交会对象 最接近时刻(TCA) 交会距离 交会风险概率(CRP) 交会风险指数(CRI) 操作
CDM_260913-121605-717606-034723
OBJECT L (57176)
2026-09-13T
12:16:13+0000
1.004 km
极远距离
1.632053E-5 中风险 0.59
CDM_260914-040304-793706-034722
OBJECT F (47937)
2026-09-14T
04:03:15+0000
2.687 km
极远距离
1.451606E-6 低风险 0.38
CDM_260905-031106-034706-812321
2026-09-05T
03:11:02+0000
2.843 km
极远距离
1.315931E-6 低风险 0.37
CDM_260913-095102-058006-034724
HST (20580)
2026-09-13T
09:51:53+0000
2.747 km
极远距离
9.937422E-7 极低风险 0.35
CDM_260912-150606-034706-759922
2026-09-12T
15:06:14+0000
2.909 km
极远距离
9.054638E-7 极低风险 0.34
与全量物体交会距离演化趋势
与全量物体交会风险概率演化趋势